Proserpine, Australia

5:50 PM AEST on July 25, 2017 (GMT +1000)
Whitsunday

Weather History for YBPN - January, 2014

Change the Weather History Date:

Saturday, January 25, 2014

  Actual Average Record
Temperature  
Mean Temperature 81 °F -  
Max Temperature 91 °F - - ()
Min Temperature 71 °F - - ()
Cooling Degree Days 16    
Growing Degree Days 31 (Base 50)    
Moisture  
Dew Point 72 °F    
Average Humidity 75    
Maximum Humidity 94    
Minimum Humidity 46    
Precipitation  
Precipitation 0.00 in - - ()
Sea Level Pressure  
Sea Level Pressure 29.75 in    
Wind  
Wind Speed 6 mph ()    
Max Wind Speed 15 mph    
Max Gust Speed -    
Visibility 6.6 miles    
Events      
T = Trace of Precipitation, MM = Missing Value Source: Averaged Metar Reports

Daily Weather History Graph

Daily Weather History Graph

Search for Another Location

Airport or City:

Trip Planner

Search our weather history database for the weather conditions in past years. The results will help you decide how hot, cold, wet, or windy it might be!

Date:

Astronomy

Jan. 25, 2014 Rise Set
Actual Time 5:44 AM AEST 6:51 PM AEST
Civil Twilight 5:20 AM AEST 7:15 PM AEST
Nautical Twilight 4:52 AM AEST 7:43 PM AEST
Astronomical Twilight 4:23 AM AEST 8:12 PM AEST
Moon No Moon Rise 1:08 PM AEST
Length of Visible Light 13h 54m
Length of Day
13h 06m
Last Quarter, 41% of the Moon is Illuminated
Jan 25
Last Quarter
Jan 31
New
Feb 7
First Quarter
Feb 15
Full
Feb 23
Last Quarter

Hourly Weather History & Observations

Time (AEST) Temp. Heat Index Dew Point Humidity Pressure Visibility Wind Dir Wind Speed Gust Speed Precip Events Conditions
12:00 AM 76 °F - 72 °F 86% 29.81 in - South 4.6 mph - -  
12:00 AM 75.2 °F - 73.4 °F 94% 29.80 in 6.2 mi South 4.6 mph - N/A   Scattered Clouds
1:00 AM 75.2 °F - 71.6 °F 89% 29.77 in 6.2 mi South 5.8 mph - N/A   Unknown
2:00 AM 73.4 °F - 71.6 °F 94% 29.74 in 6.2 mi SSW 5.8 mph - N/A   Unknown
3:00 AM 73 °F - 71 °F 90% 29.76 in - SSW 5.8 mph - -  
3:00 AM 73.4 °F - 71.6 °F 94% 29.74 in 6.2 mi SSW 5.8 mph - N/A   Unknown
4:00 AM 71.6 °F - 69.8 °F 94% 29.74 in 6.2 mi SW 3.5 mph - N/A   Unknown
5:00 AM 71.6 °F - 69.8 °F 94% 29.74 in 6.2 mi SSW 4.6 mph - N/A   Scattered Clouds
6:00 AM 72 °F - 70 °F 92% 29.75 in - SW 3.5 mph - -  
6:00 AM 71.6 °F - 69.8 °F 94% 29.74 in 6.2 mi SW 4.6 mph - N/A   Unknown
7:00 AM 77.0 °F - 71.6 °F 83% 29.77 in 6.2 mi SSW 3.5 mph - N/A   Unknown
8:00 AM 80.6 °F 85.4 °F 73.4 °F 79% 29.77 in 6.2 mi South 4.6 mph - N/A   Unknown
9:00 AM 83 °F - 71 °F 59% 29.79 in - SE 5.8 mph - -  
9:00 AM 82.4 °F 87.2 °F 71.6 °F 70% 29.77 in 6.2 mi SE 4.6 mph - N/A   Scattered Clouds
10:00 AM 86.0 °F 91.8 °F 71.6 °F 62% 29.77 in 6.2 mi East 5.8 mph - N/A   Scattered Clouds
11:00 AM 87.8 °F 93.8 °F 71.6 °F 58% 29.77 in 6.2 mi SE 5.8 mph - N/A   Scattered Clouds
12:00 PM 90 °F - 76 °F 55% 29.75 in - East 8.1 mph - -  
12:00 PM 89.6 °F 98.2 °F 73.4 °F 59% 29.74 in 6.2 mi East 9.2 mph - N/A   Unknown
1:00 PM 91.4 °F 100.1 °F 73.4 °F 55% 29.74 in 6.2 mi ESE 11.5 mph - N/A   Unknown
2:00 PM 89.6 °F 94.7 °F 69.8 °F 52% 29.71 in 6.2 mi ESE 11.5 mph - N/A   Unknown
3:00 PM 90 °F - 72 °F 46% 29.70 in 16 mi SE 12.7 mph - -   Partly Cloudy
3:00 PM 89.6 °F 94.7 °F 69.8 °F 52% 29.68 in 6.2 mi SE 12.7 mph - N/A   Unknown
4:00 PM 89.6 °F 93.4 °F 68.0 °F 49% 29.68 in 6.2 mi SE 15.0 mph - N/A   Unknown
5:00 PM 87.8 °F 95.6 °F 73.4 °F 62% 29.68 in 6.2 mi SE 13.8 mph - N/A   Unknown
6:00 PM 85 °F - 73 °F 60% 29.72 in - East 10.4 mph - -  
6:00 PM 84.2 °F 90.9 °F 73.4 °F 70% 29.71 in 6.2 mi East 10.4 mph - N/A   Scattered Clouds
7:00 PM 82.4 °F 88.2 °F 73.4 °F 74% 29.74 in 6.2 mi ESE 9.2 mph - N/A   Scattered Clouds
8:00 PM 80.6 °F 86.2 °F 75.2 °F 84% 29.77 in 6.2 mi ESE 4.6 mph - N/A   Scattered Clouds
9:00 PM 80 °F - 75 °F 81% 29.80 in - SE 4.6 mph - -  
9:00 PM 78.8 °F - 75.2 °F 89% 29.80 in 6.2 mi SE 4.6 mph - N/A   Unknown
10:00 PM 80.6 °F 86.2 °F 75.2 °F 84% 29.80 in 6.2 mi SE 4.6 mph - N/A   Scattered Clouds
11:00 PM 80.6 °F 86.2 °F 75.2 °F 84% 29.80 in 6.2 mi ESE 4.6 mph - N/A   Scattered Clouds